This is the latest recevied weather packets stored in our database for station/object N0KWA. If no packets are shown the sender has not sent any weather packets the latest 10 day(s).
| Time | Temp. | Humidity | Pressure | Rain* | Wind** | Luminosity | Snow |
|---|---|---|---|---|---|---|---|
| 1788041657 | 32.78° C | 57% | 1016.9 hPa | 0 mm | - | 15 W/m² | - |
| 1788041352 | 32.78° C | 58% | 1016.9 hPa | 0 mm | - | 12 W/m² | - |
| 1788041051 | 32.22° C | 58% | 1017.1 hPa | 0 mm | - | 12 W/m² | - |
| 1788040750 | 32.22° C | 58% | 1016.9 hPa | 0 mm | - | 12 W/m² | - |
| 1788040444 | 32.78° C | 56% | 1016.9 hPa | 0 mm | - | 12 W/m² | - |
| 1788040141 | 32.78° C | 57% | 1017.1 hPa | 0 mm | - | 13 W/m² | - |
| 1788039835 | 32.78° C | 55% | 1017.2 hPa | 0 mm | - | 13 W/m² | - |
| 1788039530 | 32.78° C | 59% | 1017 hPa | 0 mm | - | 13 W/m² | - |
| 1788039225 | 32.78° C | 55% | 1017.2 hPa | 0 mm | - | 14 W/m² | - |
| 1788038919 | 32.78° C | 55% | 1017.3 hPa | 0 mm | - | 15 W/m² | - |
| 1788038615 | 32.78° C | 54% | 1017.2 hPa | 0 mm | - | 16 W/m² | - |
| 1788038314 | 32.78° C | 55% | 1017.4 hPa | 0 mm | - | 44 W/m² | - |
| 1788038010 | 32.78° C | 55% | 1017.3 hPa | 0 mm | - | 39 W/m² | - |
| 1788037704 | 32.78° C | 55% | 1017.2 hPa | 0 mm | - | 220 W/m² | - |
| 1788037400 | 32.78° C | 55% | 1017.3 hPa | 0 mm | - | 272 W/m² | - |
| 1788037099 | 33.33° C | 53% | 1017.3 hPa | 0 mm | - | 19 W/m² | - |
| 1788036794 | 33.33° C | 55% | 1017.4 hPa | 0 mm | - | 21 W/m² | - |
| 1788036491 | 33.33° C | 52% | 1017.3 hPa | 0 mm | - | 26 W/m² | - |
| 1788036186 | 33.33° C | 50% | 1017.3 hPa | 0 mm | - | 29 W/m² | - |
| 1788035880 | 33.89° C | 51% | 1017.6 hPa | 0 mm | - | 23 W/m² | - |
| 1788035580 | 33.89° C | 50% | 1017.7 hPa | 0 mm | - | 25 W/m² | - |
| 1788035275 | 33.89° C | 51% | 1017.7 hPa | 0 mm | - | 24 W/m² | - |
| 1788034971 | 34.44° C | 46% | 1017.6 hPa | 0 mm | - | 367 W/m² | - |
| 1788034667 | 34.44° C | 45% | 1017.7 hPa | 0 mm | - | 556 W/m² | - |
| 1788034363 | 34.44° C | 42% | 1018 hPa | 0 mm | - | 594 W/m² | - |
* Rain latest hour (hover to see other rain measurements)
** Current wind speed in m/s (hover to see current wind gust speed)